This is the latest recevied weather packets stored in our database for station/object ZS1DFR-1. If no packets are shown the sender has not sent any weather packets the latest 10 day(s).
| Time | Temp. | Humidity | Pressure | Rain* | Wind** | Luminosity | Snow |
|---|---|---|---|---|---|---|---|
| 1777554505 | 19.44° C | 60% | 1012.7 hPa | 0 mm | - | - | - |
| 1777553605 | 19.44° C | 59% | 1012.6 hPa | 0 mm | - | - | - |
| 1777552705 | 19.44° C | 59% | 1012.6 hPa | 0 mm | - | - | - |
| 1777551805 | 19.44° C | 58% | 1012.5 hPa | 0 mm | - | - | - |
| 1777550905 | 19.44° C | 58% | 1012.5 hPa | 0 mm | - | - | - |
| 1777550005 | 19.44° C | 60% | 1013 hPa | 0 mm | - | - | - |
| 1777549105 | 19.44° C | 60% | 1013 hPa | 0 mm | - | - | - |
| 1777548205 | 19.44° C | 64% | 1013.2 hPa | 0 mm | - | - | - |
| 1777547305 | 19.44° C | 64% | 1013.2 hPa | 0 mm | - | - | - |
| 1777546404 | 18.89° C | 69% | 1013.4 hPa | 0 mm | - | - | - |
| 1777545504 | 18.89° C | 69% | 1013.4 hPa | 0 mm | - | - | - |
| 1777544605 | 18.33° C | 69% | 1013.9 hPa | 0 mm | - | - | - |
| 1777543705 | 18.33° C | 69% | 1013.9 hPa | 0 mm | - | - | - |
| 1777542804 | 18.33° C | 74% | 1014.3 hPa | 0 mm | - | - | - |
| 1777541905 | 18.33° C | 74% | 1014.3 hPa | 0 mm | - | - | - |
| 1777541004 | 18.33° C | 75% | 1014.1 hPa | 0 mm | - | - | - |
| 1777540105 | 18.33° C | 75% | 1014.1 hPa | 0 mm | - | - | - |
| 1777539204 | 17.78° C | 77% | 1014 hPa | 0 mm | - | - | - |
| 1777538304 | 17.78° C | 77% | 1014 hPa | 0 mm | - | - | - |
| 1777537404 | 16.67° C | 80% | 1014.1 hPa | 0 mm | - | - | - |
| 1777536504 | 16.67° C | 80% | 1014.1 hPa | 0 mm | - | - | - |
| 1777535604 | 16.67° C | 83% | 1014.1 hPa | 0 mm | - | - | - |
| 1777534704 | 16.67° C | 83% | 1014.1 hPa | 0 mm | - | - | - |
| 1777533804 | 15.56° C | 86% | 1014 hPa | 0 mm | - | - | - |
| 1777532904 | 15.56° C | 86% | 1014 hPa | 0 mm | - | - | - |
* Rain latest hour (hover to see other rain measurements)
** Current wind speed in m/s (hover to see current wind gust speed)